Regional Weather Roundup
Issued by NWS

Home | Current Version | Previous Version | Text Only | Print | Product List | Glossary On
Versions: 1 2 3 4 5 6 7 8 9 10 11 12 13 14 15 16 17 18 19 20 21 22 23 24 25 26 27 28 29 30 31 32 33 34 35 36 37 38 39 40 41 42 43 44 45 46 47 48 49 50
000
ASUS43 KMPX 210210
RWRMN
WEATHER ROUNDUP FOR MINNESOTA
NATIONAL WEATHER SERVICE TWIN CITIES/CHANHASSEN MN
900 PM CDT WED AUG 20 2014


NOTE: "FAIR" INDICATES FEW OR NO CLOUDS BELOW 12,000 FEET WITH NO
SIGNIFICANT WEATHER AND/OR OBSTRUCTIONS TO VISIBILITY. N/A MEANS
CURRENT SKY AND/OR WEATHER CONDITIONS ARE NOT AVAILABLE.

MNZ060>063-068>070-210300-
   Twin Cities Metro

CITY           SKY/WX    TMP DP  RH WIND       PRES   REMARKS
TWIN CITIES    MOCLDY    76  66  71 E13       29.85S
ST PAUL        MOCLDY    75  66  73 SE9       29.86R
CRYSTAL        MOCLDY    77  65  66 E6        29.84R
BLAINE         MOCLDY    75  68  78 E8        29.86S
LAKEVILLE      MOCLDY    70  68  94 E5        29.86R
EDEN PRAIRIE   CLOUDY    77  67  71 E9        29.84R
SOUTH ST PAUL  MOCLDY    75  65  72 E8        29.86R
LAKE ELMO      FAIR      72  66  83 E7        29.88S
$$
MNZ001>005-007-008-013>017-022>024-027-028-210300-
   Northwest Minnesota

CITY           SKY/WX    TMP DP  RH WIND       PRES   REMARKS
BEMIDJI        MOCLDY    71  63  75 SE9       29.87S
HALLOCK        PTCLDY    75  66  73 SE9       29.77F
ROSEAU         PTCLDY    72  63  73 SE6       29.83S
WARROAD        CLEAR     70  64  83 SE9       29.85R
THIEF RVR FALL PTCLDY    72  64  78 E8        29.82S
CROOKSTON      PTCLDY    72  66  83 SE7       29.80S
FOSSTON        PTCLDY    66  59  77 E6        29.84S
DETROIT LAKES  MOCLDY    73  64  73 E8        29.85S
MOORHEAD       MOCLDY    75  72  88 SE6       29.80R
PARK RAPIDS    MOCLDY    71  65  81 E7        29.87R
MAHNOMEN       FAIR      71  65  82 SE7       29.82F
$$
MNZ006-009>011-018-025>026-210300-
   North Central Minnesota

CITY           SKY/WX    TMP DP  RH WIND       PRES   REMARKS
BAUDETTE       CLEAR     67  61  81 E6        29.87R
FLAG ISLAND    PTCLDY    73  63  68 SE5       29.85R
INTL FALLS     PTCLDY    63  59  87 SE5       29.89R
WASKISH        CLEAR     66  63  88 CALM      29.87S
BIG FORK       CLEAR     64  61  88 CALM      29.91R
LONGVILLE      PTCLDY    64  63  94 CALM      29.90R
GRAND RAPIDS   PTCLDY    64  59  82 SE5       29.92R
CRANE LAKE     PTCLDY    57  57 100 CALM      29.92S
ORR            MOCLDY    63  57  82 CALM      29.89R
COOK           PTCLDY    63  61  94 CALM      29.92R
WALKER         FAIR      69  64  85 E5        29.88R
$$
MNZ012-019>021-037-210300-
   Northeast Minnesota

CITY           SKY/WX    TMP DP  RH WIND       PRES   REMARKS
DULUTH         PTCLDY    62  56  80 E6        29.93R
ELY            CLOUDY    66  61  82 SE6       29.94R
HIBBING        CLEAR     61  59  93 CALM      29.92R
EVELETH        PTCLDY    63  59  88 CALM      29.93S
DULUTH HARBOR  CLEAR     64  61  88 NE8       29.92R
TWO HARBORS    CLEAR     61  55  82 NE3       29.92S
SILVER BAY     PTCLDY    57  57 100 CALM      29.93S
GRAND MARAIS     N/A     63  59  87 CALM      29.96R
G MARAIS ARPRT CLOUDY    57  54  88 CALM      29.99R FOG
$$
MNZ029>031-032-039>041-046>048-054>057-064-210300-
   West Central Minnesota

CITY           SKY/WX    TMP DP  RH WIND       PRES   REMARKS
FERGUS FALLS   PTCLDY    75  64  69 E8        29.80S
WHEATON        MOCLDY    72  66  83 E9        29.80S
MORRIS         PTCLDY    73  66  78 E8        29.80R
ALEXANDRIA     PTCLDY    73  65  75 SE9       29.86R
ELBOW LAKE     FAIR      74  67  80 E7        29.82R
WADENA         MOCLDY    72  64  78 E7        29.86R
GLENWOOD       PTCLDY    72  66  83 E8        29.85S
APPLETON       MOCLDY    75  68  78 E6        29.79R
BENSON         MOCLDY    75  68  78 SE8       29.81R
ORTONVILLE     CLOUDY    75  68  78 E9        29.78S
MADISON        CLOUDY    77  72  83 SE7       29.78R
WILLMAR        FAIR      75  66  73 E8        29.84R
$$
MNZ033>034-036-042>043-049>051-058-059-210300-
   Central Minnesota

CITY           SKY/WX    TMP DP  RH WIND       PRES   REMARKS
ST CLOUD       MOCLDY    74  65  73 E7        29.86R
SAUK CENTRE    MOCLDY    73  66  79 E8        29.85S
PAYNESVILLE    MOCLDY    72  65  77 NE7       29.85R
AITKIN         MOCLDY    68  63  83 CALM      29.89R
PINE RIVER     MOCLDY    66  63  88 CALM      29.92R
BRAINERD       MOCLDY    68  63  84 CALM      29.89R
STAPLES        MOCLDY    70  63  78 E5        29.87R
LONG PRAIRIE   FAIR      70  64  83 E6        29.87R
LITTLE FALLS   MOCLDY    70  63  78 E5        29.88R
LITCHFIELD     CLOUDY    73  70  88 E6        29.85R
BUFFALO        CLOUDY    73  65  74 NE6       29.86R
MAPLE LAKE     CLOUDY    74  68  81 E8        29.86R
$$
MNZ037-044-045-052-053-210300-
   East Central Minnesota

CITY           SKY/WX    TMP DP  RH WIND       PRES   REMARKS
PRINCETON      MOCLDY    72  66  83 E5        29.88R
MORA           MOCLDY    64  61  88 CALM      29.91R
CAMBRIDGE      MOCLDY    73  63  68 E3        29.87R
RUSH CITY      MOCLDY    69  63  82 E3        29.89R
MOOSE LAKE     PTCLDY    64  61  88 CALM      29.90R
HINCKLEY       CLOUDY    68  63  83 E6        29.90R
CLOQUET        CLEAR     63  57  82 E3        29.93R
MCGREGOR       PTCLDY    64  63  94 E7        29.91R
$$
MNZ071>073-080-081-089-090-097-098-210300-
   Southwest Minnesota

CITY           SKY/WX    TMP DP  RH WIND       PRES   REMARKS
MONTEVIDEO     MOCLDY    73  70  88 SE6       29.81R
GRANITE FALLS  CLOUDY    75  70  85 E6        29.82R
CANBY          CLOUDY    74  69  86 SE6       29.79R
MARSHALL       CLOUDY    75  68  78 SE10      29.79R
REDWOOD FALLS  CLOUDY    77  69  76 S10       29.81R
OLIVIA         MOCLDY    77  68  73 SE7       29.82R
PIPESTONE      CLOUDY    72  68  88 SE8       29.81S
WINDOM         CLOUDY    72  66  83 SE7       29.84R
WORTHINGTON    CLOUDY    70  12  11 E6        29.84R
JACKSON        CLOUDY    72  66  83 SE6       29.84F
TRACY          CLOUDY    75  70  86 SE9       29.82R
SLAYTON        CLOUDY    71  68  92 CALM      29.83S
$$
MNZ065>067-074>077-082>085-091>093-210300-
   South Central Minnesota

CITY           SKY/WX    TMP DP  RH WIND       PRES   REMARKS
MANKATO        MOCLDY    75  64  69 SE8       29.84S
NEW ULM        CLOUDY    75  72  88 S7        29.83R
ST JAMES       CLOUDY    75  68  78 SE7       29.85R
FAIRMONT       CLOUDY    72  64  78 SE5       29.85R
GLENCOE        CLOUDY    76  67  72 E8        29.83R
FARIBAULT      MOCLDY    77  66  69 SE5       29.86R
OWATONNA       MOCLDY    75  68  78 SE6       29.87R
WASECA         MOCLDY    72  63  73 SE7       29.88R
ALBERT LEA     CLOUDY    73  68  83 SE6       29.87S
$$
MNZ078>079-086>088-094>096-210300-
   Southeast Minnesota

CITY           SKY/WX    TMP DP  RH WIND       PRES   REMARKS
ROCHESTER      PTCLDY    71  67  87 S5        29.90R
RED WING       PTCLDY    75  64  69 E12       29.86S
STANTON        PTCLDY    74  68  80 E6        29.85R
DODGE CENTER   PTCLDY    72  68  88 S7        29.89R
WINONA         PTCLDY    73  68  83 CALM      29.89R
AUSTIN         MOCLDY    70  66  88 E3        29.88S
PRESTON        PTCLDY    72  71  97 S6        29.91R
$$
ABBREVIATIONS USED IN REMARKS
   TC - TEMPERATURES IN CELSIUS
  WCI - WIND CHILL INDEX
   HX - HEAT INDEX
  VSB - VISIBILITY
$$


USA.gov is the U.S. government's official web portal to all federal, state and local government web resources and services.